Weather History for Rogers, AR

Change the Weather History Date:

Monday, October 17, 2011

  Actual Average Record
Temperature  
Mean Temperature 64 °F -  
Max Temperature 81 °F 67 °F 84 °F (2005)
Min Temperature 46 °F 46 °F 30 °F (2002)
Growing Degree Days 14 (Base 50)    
Moisture  
Dew Point 52 °F    
Average Humidity 64    
Maximum Humidity 82    
Minimum Humidity 39    
Precipitation  
Precipitation 0.01 in - - ()
Sea Level Pressure  
Sea Level Pressure 29.82 in    
Wind  
Wind Speed 9 mph (ESE)    
Max Wind Speed 24 mph    
Max Gust Speed 38 mph    
Visibility 10 miles    
Events Rain , Thunderstorm    
Averages and records for this station are not official NWS values.
T = Trace of Precipitation, MM = Missing Value Source: NWS Daily Summary

Daily Weather History Graph

Daily Weather History Graph

Search for Another Location

Airport:

Trip Planner

Search our weather history database for the weather conditions in past years. The results will help you decide how hot, cold, wet, or windy it might be!

Date:

Astronomy

Oct. 17, 2011 Rise Set
Actual Time 7:25 AM CDT 6:37 PM CDT
Civil Twilight 6:59 AM CDT 7:03 PM CDT
Nautical Twilight 6:29 AM CDT 7:33 PM CDT
Astronomical Twilight 5:59 AM CDT 8:03 PM CDT
Moon 10:26 PM CDT (10/17) 12:24 PM CDT (10/17)
Length of Visible Light 12h 04m
Length of Day
11h 12m
Waning Gibbous, 74% of the Moon is Illuminated
Oct 17
Waning Gibbous
Oct 19
Last Quarter
Oct 26
New
Nov 2
First Quarter
Nov 10
Full

Hourly Weather History & Observations

Time (CDT) Temp. Heat Index Dew Point Humidity Pressure Visibility Wind Dir Wind Speed Gust Speed Precip Events Conditions
12:57 AM 59.0 °F - 48.0 °F 67% 29.95 in 10.0 mi NE 5.8 mph - N/A   Clear
1:57 AM 59.0 °F - 48.0 °F 67% 29.94 in 10.0 mi ENE 5.8 mph - N/A   Clear
2:57 AM 57.0 °F - 48.0 °F 72% 29.93 in 10.0 mi NE 5.8 mph - N/A   Clear
3:57 AM 57.9 °F - 48.0 °F 70% 29.92 in 10.0 mi East 9.2 mph - N/A   Clear
4:57 AM 57.9 °F - 48.0 °F 70% 29.92 in 10.0 mi East 9.2 mph - N/A   Clear
5:57 AM 57.0 °F - 48.0 °F 72% 29.92 in 10.0 mi East 10.4 mph - N/A   Clear
6:57 AM 57.0 °F - 46.9 °F 69% 29.91 in 10.0 mi East 12.7 mph - N/A   Clear
7:57 AM 57.0 °F - 46.9 °F 69% 29.90 in 10.0 mi East 11.5 mph - N/A   Clear
8:57 AM 59.0 °F - 50.0 °F 72% 29.89 in 10.0 mi East 12.7 mph - N/A   Clear
9:57 AM 60.1 °F - 51.1 °F 72% 29.88 in 10.0 mi ESE 8.1 mph - N/A   Clear
10:57 AM 64.9 °F - 53.1 °F 65% 29.86 in 10.0 mi SE 6.9 mph - N/A   Clear
11:57 AM 73.9 °F - 57.0 °F 55% 29.82 in 10.0 mi SE 8.1 mph - N/A   Clear
12:57 PM 80.1 °F 80.7 °F 59.0 °F 48% 29.79 in 10.0 mi South 13.8 mph 26.5 mph N/A   Clear
1:57 PM 81.0 °F 81.0 °F 57.0 °F 44% 29.73 in 10.0 mi SSW 12.7 mph 21.9 mph N/A   Clear
2:57 PM 80.1 °F 80.1 °F 55.0 °F 42% 29.71 in 10.0 mi South 15.0 mph 25.3 mph N/A   Clear
3:57 PM 81.0 °F 80.5 °F 54.0 °F 39% 29.69 in 10.0 mi SSW 12.7 mph 18.4 mph N/A   Clear
4:57 PM 79.0 °F - 55.0 °F 44% 29.69 in 10.0 mi South 9.2 mph - N/A   Clear
5:57 PM 75.9 °F - 57.0 °F 52% 29.70 in 10.0 mi East 5.8 mph - N/A   Clear
6:57 PM 73.0 °F - 57.0 °F 57% 29.72 in 10.0 mi East 8.1 mph - N/A   Clear
7:57 PM 70.0 °F - 55.9 °F 61% 29.70 in 10.0 mi East 13.8 mph - N/A Thunderstorm Overcast
8:53 PM 62.6 °F - 57.2 °F 82% 29.71 in 10.0 mi ESE 15.0 mph 23.0 mph N/A Rain , Thunderstorm Light Thunderstorms and Rain
8:57 PM 64.0 °F - 57.9 °F 80% 29.71 in 10.0 mi Variable 4.6 mph 23.0 mph N/A Rain , Thunderstorm Light Thunderstorms and Rain
9:20 PM 62.6 °F - 57.2 °F 82% 29.77 in 10.0 mi NNW 11.5 mph 19.6 mph 0.00 in   Mostly Cloudy
10:57 PM 48.9 °F - 42.1 °F 77% 29.83 in 10.0 mi North 17.3 mph 27.6 mph 0.01 in Rain Rain
11:57 PM 46.9 °F - 37.0 °F 68% 29.83 in 10.0 mi NE 24.2 mph 38.0 mph 0.00 in Rain Light Rain